Vertical_Velocity
-3 -0 0 -3 -4 -0 -4 -3 -2 -6 -8 -10 -8 -4 -8 -7 -5 -4 -2 -2 -3 -2
-2 -1 0 -1 -1 -3 -2 -1 -3 -5 -6 -8 -7 -7 -6 -2 -2 -5 -2 -0 -0 -0
0 -1 -0 -2 -4 -4 0 -4 -2 -5 -7 -5 -4 -3 -4 -1 -2 -4 -2 -2 -2 -2
1 0 -2 -2 -3 -3 -0 -4 -4 -5 -3 -3 -2 -3 -1 -2 -1 -3 -3 -2 -4 1
-1 -2 -3 -2 -3 -4 -2 -4 -3 -4 -2 -2 -2 0 -2 -2 -6 -5 -3 -3 -4 1
-2 -3 -3 -2 -3 -3 -2 -3 -4 -3 -1 -1 -1 -1 -3 -4 -5 -4 -3 -2 -3 0
-2 -2 -1 -4 -4 -3 -4 -4 -3 -2 -1 -1 1 -2 -2 -3 -5 -5 -1 -2 -3 -2
-3 -1 -3 -2 -3 -4 -5 -3 -0 -0 -1 0 -1 -3 -3 -3 -3 -3 -3 -3 -4 -1
-1 -1 -4 -3 -3 -5 -3 -1 -1 -1 3 -0 -3 -3 -2 -6 -3 -0 -3 -1 -0 -1
-0 -4 -4 -1 -3 -3 -1 -0 0 -0 -1 0 -1 -1 -1 -2 -3 -2 -3 -3 -1 1
-3 -4 -2 -2 -2 -3 0 -0 -0 -1 -2 2 -2 1 -3 -2 -2 -2 -2 -3 -3 -1
-1 -1 -3 -2 -2 -2 1 -1 0 -1 -1 1 -1 -1 -2 -2 -2 -0 1 -1 -1 -3
0 -1 -1 -2 -1 -1 1 -1 0 -1 -1 -1 1 -1 -1 -3 -3 2 1 -1 -1 -1
-1 -0 -1 -2 0 1 -0 -0 0 0 -1 -2 -0 -1 -0 -1 -1 1 2 0 1 -0
Height
5543 5539 5534 5528 5523 5518 5511 5503 5496 5488 5480 5473 5464 5453 5443 5435 5429 5426 5424 5423 5421 5421
5525 5519 5513 5507 5501 5495 5487 5480 5471 5462 5454 5443 5432 5422 5416 5414 5412 5410 5409 5407 5406 5405
5504 5499 5493 5486 5480 5474 5465 5455 5447 5437 5427 5415 5406 5402 5401 5399 5396 5393 5391 5389 5387 5386
5484 5479 5473 5466 5459 5452 5442 5433 5422 5413 5403 5395 5392 5389 5387 5383 5379 5376 5372 5368 5366 5366
5464 5459 5453 5446 5439 5430 5421 5409 5400 5392 5386 5383 5380 5377 5373 5370 5364 5358 5353 5348 5344 5343
5445 5440 5433 5426 5418 5408 5399 5388 5380 5376 5374 5371 5368 5365 5361 5357 5351 5345 5339 5334 5329 5326
5428 5420 5413 5406 5397 5387 5378 5370 5366 5364 5362 5359 5357 5354 5350 5346 5340 5333 5328 5322 5317 5313
5410 5402 5394 5386 5376 5367 5360 5356 5354 5353 5349 5347 5346 5343 5340 5335 5330 5324 5318 5313 5307 5303
5391 5382 5376 5366 5357 5350 5346 5345 5343 5341 5339 5337 5336 5333 5329 5325 5320 5316 5311 5304 5299 5294
5372 5365 5357 5348 5341 5338 5335 5334 5332 5330 5328 5327 5325 5323 5319 5315 5311 5307 5302 5296 5291 5287
5355 5347 5339 5333 5330 5327 5325 5324 5321 5319 5318 5317 5315 5313 5310 5306 5302 5298 5294 5289 5284 5281
5339 5331 5325 5322 5319 5317 5315 5313 5311 5310 5308 5307 5306 5304 5301 5297 5294 5291 5287 5282 5278 5274
5323 5318 5315 5312 5310 5308 5306 5303 5302 5301 5299 5298 5297 5295 5292 5289 5286 5284 5280 5276 5271 5268
5311 5309 5306 5303 5301 5299 5296 5294 5293 5293 5291 5290 5288 5287 5285 5282 5279 5276 5274 5269 5266 5262